Location: Fosso Corella
(43.9167°N, 11.5667°E)
Time: 18:35:32
(UTC+00:00)

Meteor 1-28 Rocket - Pass Details

Date: 07 June 2020
Orbit: 503 x 523 km, 97.3° (Epoch: 04 July)

Event Time Altitude Azimuth Distance (km) Brightness Sun altitude
Exits shadow 02:40:33 - 187° (S) 2,224 6.0 -8.1°
Reaches altitude 10° 02:41:46 10° 193° (SSW) 1,737 5.4 -7.9°
Maximum altitude 02:45:17 38° 262° (W) 802 3.8 -7.4°
Drops below altitude 10° 02:48:48 10° 332° (NNW) 1,740 6.1 -7.0°
Sets 02:51:00 0° 340° (NNW) 2,628 7.1 -6.7°
